Regional Weather Roundup
Issued by NWS

Home | Current Version | Previous Version | Text Only | Print | Product List | Glossary On
Versions: 1 2 3 4 5 6 7 8 9 10 11 12 13 14 15 16 17 18 19 20 21 22 23 24 25 26 27 28 29 30 31 32 33 34 35 36 37 38 39 40 41 42 43 44 45 46 47 48 49 50
693
ASUS43 KMKX 060800
RWRWI

WISCONSIN REGIONAL WEATHER ROUNDUP
NATIONAL WEATHER SERVICE MILWAUKEE/SULLIVAN WI
300 AM CDT FRI MAY 06 2016

NOTE: "FAIR" INDICATES FEW OR NO CLOUDS BELOW 12,000 FEET WITH NO
SIGNIFICANT WEATHER AND/OR OBSTRUCTIONS TO VISIBILITY.

WIZ001-002-006>008-014>016-023>028-060900-
NORTHWEST WISCONSIN

CITY           SKY/WX    TMP DP  RH WIND       PRES   REMARKS
SUPERIOR ARPT  PTCLDY    42  37  83 CALM      29.77F
ASHLAND        PTCLDY    62  40  44 SW9       29.77F
HAYWARD        PTCLDY    47  40  76 CALM      29.82F
SIREN          CLEAR     63  42  45 W9        29.83S
CUMBERLAND     CLEAR     54  37  54 CALM      29.84F
RICE LAKE      CLEAR     50  43  78 CALM      29.86S
CHETEK         PTCLDY    49  43  81 CALM      29.85S
LADYSMITH      CLEAR     53  39  58 CALM      29.87F
EAU CLAIRE     CLEAR     48  40  73 CALM      29.85F
MENOMONIE      CLEAR     50  39  65 CALM      29.85F
NEW RICHMOND   CLEAR     56  40  54 S5        29.85F
OSCEOLA        CLEAR     52  44  74 CALM      29.87S
$$

WIZ003>005-009-010-017-018-060900-
NORTH CENTRAL WISCONSIN

CITY           SKY/WX    TMP DP  RH WIND       PRES   REMARKS
MANITOWISH WTR MOCLDY    51  39  62 CALM      29.86S
ARBOR VITAE    CLEAR     52  38  60 S5        29.85F
WOODRUFF       CLEAR     52  38  60 S5        29.85F
RHINELANDER    CLEAR     54  37  52 SW8       29.87F
EAGLE RIVER    CLEAR     49  35  59 S3        29.86F
LAND O LAKES   CLEAR     44  38  79 CALM      29.87F
PHILLIPS       PTCLDY    53  38  56 S6        29.85F
TOMAHAWK       PTCLDY    43  39  88 CALM      29.89S
MEDFORD        PTCLDY    50  40  67 S8        29.88S
MERRILL        CLEAR     41  39  94 CALM      29.90F
$$

WIZ029-030-035-036-043>047-060900-
CENTRAL WISCONSIN

CITY           SKY/WX    TMP DP  RH WIND       PRES   REMARKS
WAUSAU         CLEAR     55  41  59 CALM      29.88F
MOSINEE        CLEAR     48  39  71 S6        29.91F
MARSHFIELD     CLEAR     50  38  63 S3        29.88F
STEVENS POINT  CLEAR     44  37  77 CALM      29.91S
WAUPACA        CLEAR     49  38  66 CALM      29.92S
WAUTOMA        NOT AVBL
WISC RAPIDS    MOCLDY    48  39  71 SW3       29.91F
CAMP DOUGLAS   NOT AVBL
$$

WIZ011>013-019>022-031-037>040-048>050-060900-
NORTHEAST WISCONSIN

CITY           SKY/WX    TMP DP  RH WIND       PRES   REMARKS
ANTIGO         CLEAR     49  38  66 CALM      29.90F
SHAWANO        CLEAR     52  37  57 CALM      29.90S
OCONTO         PTCLDY    49  42  76 CALM      29.89S
STURGEON BAY   CLOUDY    48  37  66 S6        29.92F
GREEN BAY      CLOUDY    50  44  80 SW6       29.90F
MANITOWOC      NOT AVBL
APPLETON       CLEAR     48  34  57 SW5       29.90S
CLINTONVILLE   CLEAR     52  34  50 SW5       29.90S
OSHKOSH        CLEAR     47  36  65 S6        29.92S
$$

WIZ032>034-041-042-053>061-060900-
SOUTHWEST WISCONSIN

CITY           SKY/WX    TMP DP  RH WIND       PRES   REMARKS
LA CROSSE      CLEAR     56  44  64 SE7       29.90F
SPARTA         PTCLDY    47  43  84 CALM      29.91F
VIROQUA        PTCLDY    53  38  55 SW8       29.93S
BOSCOBEL       CLEAR     46  42  86 CALM      29.94F
PRAIRIE DU CHI CLEAR     50  40  68 CALM      29.93F
PLATTEVILLE    PTCLDY    51  40  64 S6        29.96F
$$

WIZ056-057-062-063-064-067-068-060900-
SOUTH CENTRAL WISCONSIN

CITY           SKY/WX    TMP DP  RH WIND       PRES   REMARKS
REEDSBURG      CLEAR     48  41  76 CALM      29.93F
BARABOO/DELLS  CLEAR     48  36  62 S5        29.93F
LONE ROCK      NOT AVBL
MINERAL POINT  CLEAR     54  36  50 S6        29.95F
MADISON        CLEAR     46  39  76 CALM      29.94F
MIDDLETON      MOCLDY    47  40  75 CALM      29.95S
WATERTOWN      MOCLDY    45  43  93 CALM      29.94S
MONROE         PTCLDY    52  36  54 SW7       29.96F
JANESVILLE     CLEAR     45  43  93 CALM      29.95F
$$

WIZ051-052-058>065-066-070>072-060900-
SOUTHEAST WISCONSIN

CITY           SKY/WX    TMP DP  RH WIND       PRES   REMARKS
MILWAUKEE      CLOUDY    49  38  65 SW3       29.95S
WAUKESHA       CLOUDY    45  37  76 S3        29.96S
MILWAUKEE/TIMM PTCLDY    46  36  66 CALM      29.95S
RACINE         CLOUDY    45  37  73 SW5       29.96F
BURLINGTON     PTCLDY    41  40  96 SW3       29.95F
KENOSHA        CLOUDY    42  37  82 SW5       29.95F
FOND DU LAC    CLOUDY    46  39  76 S5        29.93S
SHEBOYGAN      CLOUDY    46  40  79 SW6       29.92F
WEST BEND      MOCLDY    45  39  81 CALM      29.95S
JUNEAU         CLEAR     44  38  80 SE5       29.95S
$$

LSZ147-162-060900-
LAKE SUPERIOR

STATION/POSITION TIME  TEMP    WIND        PRES    WAVE
                       AIR SEA DIR/SP/G            HT/PER
                 (UTC) (F)     (DEG/KT/KT) (MB)    (FT/S)
W MID LAKE BUOY  0650   45 37  190/ 10/ 12 1008.0F   0
DEVILS ISLAND    0700   44     290/  5/  5 1008.1F
SAXON HARBOR     0700   64     180/  8/ 15 1007.8F
$$

LMZ867-665-643>646-060900-
LAKE MICHIGAN

STATION/POSITION TIME  TEMP    WIND        PRES    WAVE
                       AIR SEA DIR/SP/G            HT/PER
                 (UTC) (F)     (DEG/KT/KT) (MB)    (FT/S)
CHAMBERS ISLAND  0700   50     180/  6/ 10 1012.2F
N MID LAKE BUOY  0650   41 39  190/ 10/ 12 1012.9F   0
NORTHPORT PIER   0700   49     170/  5/  8 1012.2F
ALGOMA LAKESHORE 0715          210/  8/  9   N/A
KEWAUNEE LAKESHO 0700   49     160/  4/  5 1012.2F
SHEBOYGAN LAKESH 0700   48     210/  7/  7 1014.2F
PORT WASHINGTON  0700   48      CALM  /  3 1014.6F
S MID LAKE BUOY  0650   41 40  230/  6/  6 1015.0F   1/ 5
KENOSHA   LAKESH 0700   46     190/  4/  6 1014.6F
$$

TC  - TEMPERATURE IN CELSIUS
VSB - VISIBILITY IN STATUTE MILES
WCI - WIND CHILL INDEX
HX  - HEAT INDEX





USA.gov is the U.S. government's official web portal to all federal, state and local government web resources and services.